Regional Weather Roundup
Issued by NWS Albany, NY

Home | Current Version | Previous Version | Graphics & Text | Print | Product List | Glossary On
Versions: 1 2 3 4 5 6 7 8 9 10 11 12 13 14 15 16 17 18 19 20 21 22 23 24 25 26 27 28 29 30 31 32 33 34 35 36 37 38 39 40 41 42 43 44 45 46 47 48 49 50
000
ASUS41 KALY 021510
RWRALY

NEW YORK STATE HOURLY WEATHER ROUNDUP
NATIONAL WEATHER SERVICE ALBANY NY
1100 AM EDT SUN AUG 02 2015

NOTE: "FAIR" INDICATES FEW OR NO CLOUDS BELOW 12,000 FEET WITH NO
SIGNIFICANT WEATHER AND/OR NO OBSTRUCTIONS TO VISIBILITY.

NYZ032-033-038>043-046>054-057>066-NYZ062>081-021600-
EAST


CITY           SKY/WX    TMP DP  RH WIND       PRES   REMARKS
ALBANY         MOSUNNY   78  57  48 CALM      29.91R
GLENS FALLS    SUNNY     74  60  61 S8        29.89S
POUGHKEEPSIE   SUNNY     82  55  39 SW6       29.92S
NEWBURGH       SUNNY     81  59  47 SW9       29.95S
MONTGOMERY     SUNNY     81  57  43 SW13      29.93S
WHITE PLAINS   MOSUNNY   80  55  42 W3        29.95R
ISLIP          MOSUNNY   81  57  43 VRB7      29.92R
NEW YORK CITY  MOSUNNY   84  51  31 SW6       29.93R
CENTRAL PARK   SUNNY     82  55  39 VRB6      29.96R
$$

NYZ005>009-017-018-044>046-055-056-021600-
CENTRAL


CITY           SKY/WX    TMP DP  RH WIND       PRES   REMARKS
FULTON         MOSUNNY   77  62  59 VRB6      29.86F
SYRACUSE       PTSUNNY   77  62  59 SW6       29.87F
ROME           SUNNY     74  59  59 W5        29.90S
ELMIRA         SUNNY     77  59  53 SW9       29.90S
BINGHAMTON     SUNNY     71  58  63 SW7       29.95R
MONTICELLO     SUNNY     73  57  56 MISG      29.98S
$$

NYZ026>034-041>043-021600-
NORTH


CITY           SKY/WX    TMP DP  RH WIND       PRES   REMARKS
WATERTOWN      SUNNY     75  62  64 VRB7      29.84F
FORT DRUM      NOT AVBL
MASSENA        SUNNY     75  62  64 SW13      29.83F
SARANAC LAKE   MOSUNNY   70  56  61 W10       29.88F
PLATTSBURGH    MOSUNNY   74  62  66 VRB7G21   29.84S
$$

NYZ001>004-010>016-019>021-021600-
WEST


CITY           SKY/WX    TMP DP  RH WIND       PRES   REMARKS
NIAGARA FALLS  PTSUNNY   76  59  55 SW15      29.85F
BUFFALO        PTSUNNY   76  58  53 SW16      29.87S
DUNKIRK        SUNNY     77  58  51 W9        29.90S
JAMESTOWN      SUNNY     72  54  53 W12       29.95F
WELLSVILLE     SUNNY     73  53  49 W8        29.98R
ROCHESTER      PTSUNNY   79  55  43 W18       29.86F
PENN YAN       SUNNY     77  59  53 SW7       29.90S
$$

             KEY
       WCI = WIND CHILL INDEX
       VSB = VISIBILITY
       HX  = HEAT INDEX
$$



USA.gov is the U.S. government's official web portal to all federal, state and local government web resources and services.